Weather Roundup
Issued by NWS Chicago, IL

Home | Current Version | Previous Version | Text Only | Print | Product List | Glossary Off
Versions: 1 2 3 4 5 6 7 8 9 10 11 12 13 14 15 16 17 18 19 20 21 22 23 24 25 26 27 28 29 30 31 32 33 34 35 36 37 38 39 40 41 42 43 44 45 46 47 48 49 50

000
NZUS59 KLOT 202310
HRRLOT

CHICAGO AREA WEATHER ROUNDUP
NATIONAL WEATHER SERVICE CHICAGO/ROMEOVILLE IL
600 PM CDT SUN APR 20 2014

NOTE: "FAIR" INDICATES FEW OR NO CLOUDS BELOW 12,000 FEET WITH NO
SIGNIFICANT WEATHER AND/OR OBSTRUCTIONS TO VISIBILITY.

* THESE STATIONS ARE NOT UNDER NWS QUALITY CONTROL. THEY ALSO MAY NOT
  REPORT WEATHER SUCH AS PRECIPITATION OR FOG.

ILZ005-006-012>014-019>023-210000-
NORTHEAST ILLINOIS

CITY           SKY/WX    TMP DP  RH WIND       PRES   REMARKS
OHARE          PTSUNNY   77  39  25 S12       30.05F
MIDWAY         PTSUNNY   78  38  23 SW14      30.07S
AURORA         SUNNY     77  40  26 S10       30.06F
LANSING*       MOSUNNY   75  38  26 S8        30.08F
JOLIET*        SUNNY     76  37  23 S6        30.07F
WAUKEGAN       PTSUNNY   63  37  38 SE14      30.06F
DUPAGE AIRPORT SUNNY     77  41  27 S9        30.05F
WHEELING       MOSUNNY   78  40  25 S10       30.07S
KANKAKEE*      SUNNY     76  41  28 S8        30.08F
MORRIS*        SUNNY     80  26  13 S7        30.05F
LEWIS AIRPORT* SUNNY     76  36  23 SW8       30.07S
NORTHERLY IS     N/A     58  41  53 SE1         N/A
$$

WIZ051-052-058>065-066-070>072-210000-
SOUTHEAST WISCONSIN

CITY           SKY/WX    TMP DP  RH WIND       PRES   REMARKS
MILWAUKEE      PTSUNNY   70  40  33 S10       30.06S
KENOSHA*       MOSUNNY   69  40  34 SE13      30.06F
RACINE*        PTSUNNY   62  37  39 S12       30.08F
BURLINGTON     MOSUNNY   75  41  29 SW13      30.04F
WAUKESHA       MOSUNNY   73  41  31 SW9       30.04F
WEST BEND      CLOUDY    64  41  42 E5        30.04F
$$

INZ001>003-010>013-019-020-210000-
NORTHWEST INDIANA

CITY           SKY/WX    TMP DP  RH WIND       PRES   REMARKS
GARY*          PTSUNNY   77  36  22 S7        30.09S
MICHIGAN CITY* NOT AVBL
RENSSELAER*    NOT AVBL
VALPARAISO     MOSUNNY   74  35  24 S8        30.10F
$$

LMZ740>746-210000-
SOUTHERN LAKE MICHIGAN

STATION/POSITION TIME  SKY/WX   TEMP WIND        PRES    VSBY
                                AIR  DIR/SP/G
                 (UTC)          (F)  (DEG/KT/KT) (MB)    (MI)
HARRISON CRIB    2300            62  120/ 19/ 21   N/A
BURNHAM HARBOR   2300            58  130/  2/  7   N/A
CALUMET HARBOR   2300            76  180/  8/ 13 1019.0F
BURNS HARBOR     NOT AVBL
MICHIGAN CITY    2300            58   40/ 11/ 13   N/A
$$

ABBREVIATIONS USED IN REMARKS
   TC - TEMPERATURE IN CELSIUS
  WCI - WIND CHILL INDEX
   HX - HEAT INDEX
  VSB - VISIBILITY
$$


USA.gov is the U.S. government's official web portal to all federal, state and local government web resources and services.